This is the latest recevied weather packets stored in our database for station/object IW0REF-9. If no packets are shown the sender has not sent any weather packets the latest 10 day(s).
| Time | Temp. | Humidity | Pressure | Rain* | Wind** | Luminosity | Snow |
|---|---|---|---|---|---|---|---|
| 1778053108 | 18.89° C | 41% | 996.9 hPa | - | - | - | - |
| 1778052208 | 18.89° C | 39% | 997.3 hPa | - | - | - | - |
| 1778051308 | 19.44° C | 40% | 997.2 hPa | - | - | - | - |
| 1778050408 | 18.89° C | 41% | 997.3 hPa | - | - | - | - |
| 1778049508 | 18.89° C | 40% | 997.2 hPa | - | - | - | - |
| 1778048608 | 18.33° C | 42% | 997.1 hPa | - | - | - | - |
| 1778047708 | 17.78° C | 42% | 997.3 hPa | - | - | - | - |
| 1778046807 | 17.78° C | 43% | 997.3 hPa | - | - | - | - |
| 1778045907 | 17.22° C | 43% | 997.2 hPa | - | - | - | - |
| 1778045007 | 17.22° C | 44% | 996.9 hPa | - | - | - | - |
| 1778044107 | 17.22° C | 44% | 996.9 hPa | - | - | - | - |
| 1778043207 | 16.67° C | 45% | 997 hPa | - | - | - | - |
| 1778042307 | 16.67° C | 45% | 997.3 hPa | - | - | - | - |
| 1778041407 | 16.11° C | 45% | 997.5 hPa | - | - | - | - |
| 1778040508 | 16.11° C | 45% | 997.6 hPa | - | - | - | - |
| 1778039607 | 16.11° C | 45% | 997.7 hPa | - | - | - | - |
| 1778038707 | 16.11° C | 45% | 997.6 hPa | - | - | - | - |
| 1778037807 | 16.67° C | 45% | 997.5 hPa | - | - | - | - |
| 1778036906 | 17.22° C | 44% | 997.8 hPa | - | - | - | - |
| 1778036006 | 17.22° C | 43% | 997.6 hPa | - | - | - | - |
| 1778035106 | 18.33° C | 41% | 997.8 hPa | - | - | - | - |
| 1778034206 | 17.22° C | 43% | 997.8 hPa | - | - | - | - |
| 1778033306 | 17.78° C | 41% | 997.6 hPa | - | - | - | - |
| 1778032406 | 17.78° C | 42% | 997.6 hPa | - | - | - | - |
| 1778031506 | 17.22° C | 42% | 997.5 hPa | - | - | - | - |
* Rain since midnight (hover to see other rain measurements)
** Current wind speed in m/s (hover to see current wind gust speed)